{"data":{"norad_id":58722,"epoch":"2026-09-20T21:52:27.558912Z","epoch_age_seconds":114142,"freshness":"FRESH","line1":"1 58722U 24002T   26263.91143008  .00023784  00000+0  71253-3 0  9991","line2":"2 58722  53.1589  39.6725 0001733  51.1188 308.9969 15.34413330151959","mean_motion":15.3441333,"eccentricity":0.0001733,"inclination_deg":53.1589,"raan_deg":39.6725,"arg_perigee_deg":51.1188,"mean_anomaly_deg":308.9969,"bstar":0.00071253,"rev_number":15195,"period_min":93.846942792135,"perigee_km":461.47811017715,"apogee_km":463.84913167237,"semimajor_km":6840.8006209248,"source":"CELESTRAK","updated_at":"2026-09-21T09:00:33.950577Z"}}